[[{"header":{"parameterUnit":"m.s-1","parameterCategory":1,"la1":30.2991,"la2":30.254,"lo1":-89.0895,"lo2":-89.0444,"dy":0.0017,"dx":0.0017,"nx":28,"ny":28,"refTime":"2024-08-24T03:00:00:Z","depth":0,"parameterNumber":2,"parameterNumberName":"U-component_of_WINDS"},"data":[0,0,0,0,0,0,0,0,0,0,0,0,0,0,0,0,0,0,0,0,0,0,0,0,0,0,0,0,0,0,0,0,0,0,0,0,0,0,0,0,0,0,0,0,0,0,0,0,0,0,0,0,0,0,0,0,0,0,-2.9091,-2.9091,0,-2.9119,-2.9119,-2.9119,-2.904,-2.9038,-2.9035,-2.9033,-2.9062,-2.9065,-2.9068,0,0,0,0,0,0,0,0,0,0,0,0,0,-2.897,-2.8972,-2.9091,-2.9091,-2.9092,-2.9119,-2.9119,-2.912,-2.9041,-2.9038,-2.9035,-2.9032,-2.9061,-2.9065,-2.9069,0,0,0,0,0,0,0,0,0,0,0,0,0,-2.9013,-2.8973,-2.9091,-2.9056,-2.9053,-2.9119,-2.9119,-2.912,-2.9041,-2.9038,-2.9034,-2.9031,-2.906,-2.9065,-2.9069,-2.9171,0,0,-2.9083,-2.9085,0,0,0,0,0,0,0,0,-2.901,-2.9017,-2.906,-2.9058,-2.9055,-2.9072,-2.9087,-2.9137,-2.9042,-2.9046,-2.9033,-2.9029,-2.9069,-2.9072,-2.9086,-2.9172,-2.9174,-2.9084,-2.9086,-2.9088,-2.909,0,0,0,0,0,0,0,-2.9007,-2.9015,-2.9102,-2.9061,-2.9058,-2.9038,-2.904,-2.9096,-2.9077,-2.9045,-2.9039,-2.9044,-2.9067,-2.9081,-2.9086,-2.9174,-2.9083,-2.9088,-2.909,-2.9092,-2.9345,-2.9348,0,0,0,0,0,0,-2.9009,-2.9013,-2.9101,-2.9103,-2.9023,-2.9044,-2.9046,-2.907,-2.9077,-2.9074,-2.9047,-2.904,-2.9075,-2.9081,-2.9087,-2.9205,-2.9088,-2.9093,-2.9095,-2.9341,-2.9346,-2.935,0,0,0,0,0,0,-2.9007,-2.9017,-2.91,-2.9057,-2.9066,-2.905,-2.9078,-2.9073,-2.9088,-2.9078,-2.9074,-2.9065,-2.9073,-2.908,-2.915,-2.9205,-2.9095,-2.9099,-2.9336,-2.9342,-2.9348,-2.9444,0,0,0,0,0,0,-2.9003,-2.9017,-2.9056,-2.9058,-2.9068,-2.9163,-2.9081,-2.9076,-2.9096,-2.9087,-2.9094,-2.9092,-2.907,-2.9144,-2.9155,-2.9209,-2.9102,-2.9331,-2.9339,-2.9346,-2.9436,-2.9452,-2.9466,0,0,0,0,0,-2.8999,-2.9082,-2.9058,-2.9069,-2.9116,-2.9167,-2.9172,-2.9146,-2.9101,-2.9139,-2.9133,-2.9092,-2.9198,-2.9152,-2.9163,-2.922,-2.9327,-2.9337,-2.9345,-2.9429,-2.9449,-2.9466,0,0,0,0,0,0,-2.9086,-2.9082,-2.9055,-2.9141,-2.9155,-2.9153,-2.9201,-2.9168,-2.9195,-2.9186,-2.9152,-2.9154,-2.923,-2.9232,-2.9181,-2.9318,-2.9255,-2.9266,-2.9314,-2.9333,-2.9348,-2.9346,-2.9106,0,0,0,0,0,-2.9116,-2.9157,-2.9151,-2.9227,-2.9235,-2.9217,-2.9238,-2.9216,-2.923,-2.9235,-2.9234,-2.9249,-2.9285,-2.9309,-2.9342,-2.9436,-2.9436,-2.9481,-2.9496,-2.9509,-2.9519,-2.9568,-2.9587,-2.9379,-2.9379,-2.9379,0,0,-2.9176,-2.9179,-2.9207,-2.9245,-2.9253,-2.9296,-2.9223,-2.9272,-2.9304,-2.9243,-2.9308,-2.9308,-2.9322,-2.9404,-2.9441,-2.9408,-2.9577,-2.952,-2.953,-2.9533,-2.9579,-2.9598,-2.9616,-2.9385,-2.9384,-2.9383,0,0,-2.9309,-2.9315,-2.9379,-2.9389,-2.9402,-2.9389,-2.9405,-2.9408,-2.9406,-2.9471,-2.9426,-2.9464,-2.9527,-2.9539,-2.9553,-2.969,-2.9653,-2.9702,-2.9782,-2.983,-2.9846,-2.986,-2.9908,-2.9926,-2.9712,-2.9712,-2.9713,0,-2.9383,-2.9446,-2.9416,-2.9468,-2.9486,-2.9432,-2.9496,-2.9507,-2.9531,-2.9544,-2.9508,-2.9586,-2.9592,-2.9675,-2.9709,-2.9723,-2.9739,-2.97,-2.9846,-2.986,-2.9873,-2.9918,-2.9937,-2.9718,-2.9717,-2.9717,-2.9716,0,-2.9535,-2.958,-2.963,-2.9654,-2.9677,-2.9735,-2.9714,-2.9741,-2.9717,-2.9709,-2.9776,-2.9781,-2.9813,-2.9832,-2.981,-2.9913,-2.9892,-2.9852,-2.9787,-2.9899,-2.9941,-2.9958,-2.9726,-2.9724,-2.9723,-2.9721,0,0,-2.9723,-2.9729,-2.9748,-2.9757,-2.9768,-2.9802,-2.9858,-2.9889,-2.9913,-2.9931,-2.9977,-3.0032,-2.9994,-3.001,-2.9989,-3.0031,-3.0138,-2.9986,-2.9985,-3.0013,-3.0251,-3.028,-3.0301,-3.0115,-3.0118,-3.012,-3.0249,0,-2.9852,-2.9947,-2.9921,-3.0016,-3.0056,-3.0006,-3.0054,-3.0066,-3.006,-3.0094,-3.0086,-3.0126,-3.0074,-3.0083,-3.0123,-3.0117,-3.0185,-3.0107,-3.0156,-3.0158,-3.0153,-3.0323,-3.0354,-3.0476,-3.0266,-3.0268,-3.027,0,-3.0016,-3.004,-3.0138,-3.0141,-3.0157,-3.0201,-3.0228,-3.0261,-3.0273,-3.0266,-3.0284,-3.0254,-3.0309,-3.0244,-3.0319,-3.0267,-3.0285,-3.0285,-3.0289,-3.0292,-3.022,-3.0329,-3.0514,-3.0532,-3.0296,-3.0294,-3.0292,0,-3.0141,-3.0198,-3.0264,-3.0274,-3.028,-3.0312,-3.0316,-3.0325,-3.0345,-3.0369,-3.0381,-3.0411,-3.0428,-3.0452,-3.043,-3.0386,-3.0508,-3.0442,-3.0503,-3.0504,-3.053,-3.0528,-3.0719,-3.0544,-3.0544,-3.0544,-3.0543,0,-3.0288,-3.0349,-3.032,-3.0361,-3.0428,-3.0399,-3.0467,-3.0465,-3.0473,-3.0512,-3.0472,-3.0509,-3.048,-3.0515,-3.0499,-3.0563,-3.0571,-3.0566,-3.0561,-3.0569,-3.057,-3.058,-3.057,-3.0549,-3.0547,-3.0547,-3.0546,0,-3.0439,-3.0421,-3.049,-3.049,-3.0491,-3.0541,-3.0541,-3.0578,-3.0569,-3.0619,-3.0629,-3.0615,-3.0654,-3.0635,-3.0677,-3.0666,-3.0748,-3.0732,-3.0744,-3.0739,-3.08,-3.0794,-3.1004,-3.1029,-3.0839,-3.0841,-3.0842,0,-3.0532,-3.0579,-3.0583,-3.0606,-3.0613,-3.0651,-3.0671,-3.0644,-3.0667,-3.0685,-3.072,-3.0756,-3.0783,-3.0848,-3.0841,-3.0873,-3.0857,-3.0928,-3.0861,-3.0868,-3.0857,-3.0854,-3.0858,-3.0941,-3.0943,-3.0945,-3.0947,0,-3.0701,-3.069,-3.0721,-3.0749,-3.0774,-3.0795,-3.0812,-3.0834,-3.0807,-3.0835,-3.0874,-3.0895,-3.0937,-3.0973,-3.1001,-3.1005,-3.0972,-3.0968,-3.0983,-3.0992,-3.0996,-3.0993,-3.0779,-3.0963,-3.0961,-3.096,-3.0959,-3.0958,-3.0825,-3.0864,-3.0873,-3.0908,-3.0918,-3.0935,-3.097,-3.0965,-3.0997,-3.1029,-3.1011,-3.1057,-3.1068,-3.1101,-3.111,-3.1146,-3.1118,-3.1141,-3.1146,-3.1152,-3.116,-3.0991,-3.1151,-3.1151,-3.115,-3.115,-3.1149,0,-3.099,-3.0994,-3.1027,-3.1052,-3.108,-3.1046,-3.1063,-3.1089,-3.113,-3.1143,-3.117,-3.1215,-3.125,-3.1246,-3.1278,-3.1307,-3.1293,-3.1316,-3.1313,-3.1315,-3.1183,-3.1166,-3.1327,-3.1327,-3.1327,-3.1327,-3.1327,-3.1327,-3.108,-3.1142,-3.1133,-3.12,-3.1203,-3.1247,-3.126,-3.1275,-3.1285,-3.1338,-3.1366,-3.1363,-3.1369,-3.1401,-3.1431,-3.1429,-3.1443,-3.1472,-3.1464,-3.1342,-3.1324,-3.1307,-3.1291,-3.1475,-3.1475,-3.1592,-3.1593,-3.1594]},{"header":{"parameterUnit":"m.s-1","parameterCategory":1,"la1":30.2991,"la2":30.254,"lo1":-89.0895,"lo2":-89.0444,"dy":0.0017,"dx":0.0017,"nx":28,"ny":28,"refTime":"2024-08-24T03:00:00:Z","depth":0,"parameterNumber":3,"parameterNumberName":"V-component_of_WINDS"},"data":[0,0,0,0,0,0,0,0,0,0,0,0,0,0,0,0,0,0,0,0,0,0,0,0,0,0,0,0,0,0,0,0,0,0,0,0,0,0,0,0,0,0,0,0,0,0,0,0,0,0,0,0,0,0,0,0,0,0,1.435,1.435,0,1.4395,1.4395,1.4396,1.4424,1.4425,1.4425,1.4425,1.4468,1.4469,1.447,0,0,0,0,0,0,0,0,0,0,0,0,0,1.4286,1.4287,1.435,1.435,1.4351,1.4395,1.4395,1.4396,1.4424,1.4425,1.4425,1.4425,1.4467,1.4469,1.447,0,0,0,0,0,0,0,0,0,0,0,0,0,1.432,1.4287,1.435,1.437,1.4373,1.4395,1.4395,1.4396,1.4424,1.4425,1.4425,1.4425,1.4467,1.4468,1.447,1.4474,0,0,1.4474,1.4475,0,0,0,0,0,0,0,0,1.4318,1.4323,1.4367,1.4369,1.4372,1.4404,1.4389,1.4422,1.4424,1.4405,1.4425,1.4425,1.4446,1.4449,1.4457,1.4476,1.4478,1.4475,1.4475,1.4476,1.4476,0,0,0,0,0,0,0,1.4316,1.4321,1.4368,1.4367,1.437,1.4377,1.4382,1.4395,1.4423,1.4406,1.4409,1.4414,1.4448,1.4456,1.4458,1.4478,1.4475,1.4476,1.4477,1.4477,1.4502,1.4502,0,0,0,0,0,0,1.4311,1.4319,1.4366,1.4369,1.4345,1.4378,1.4383,1.4394,1.4423,1.4428,1.4413,1.4415,1.4453,1.4457,1.446,1.4466,1.4476,1.4477,1.4478,1.4502,1.4502,1.4502,0,0,0,0,0,0,1.4309,1.4315,1.4364,1.4344,1.4351,1.4378,1.439,1.4394,1.4403,1.4429,1.4433,1.4417,1.4453,1.4458,1.447,1.4468,1.4478,1.4479,1.4502,1.4502,1.4502,1.4479,0,0,0,0,0,0,1.4307,1.4314,1.4316,1.4344,1.4352,1.4375,1.4389,1.4395,1.4405,1.4408,1.4433,1.4437,1.4454,1.4468,1.4472,1.447,1.4481,1.4503,1.4502,1.4502,1.448,1.4478,1.4476,0,0,0,0,0,1.4305,1.4307,1.4316,1.4322,1.4356,1.4374,1.4379,1.4399,1.4405,1.4407,1.4424,1.4437,1.4468,1.4469,1.4473,1.4473,1.4503,1.4502,1.4502,1.4481,1.4478,1.4476,0,0,0,0,0,0,1.4277,1.4311,1.4322,1.4334,1.4351,1.4379,1.4383,1.4395,1.4411,1.4412,1.4435,1.4441,1.4451,1.4463,1.4463,1.4478,1.4487,1.4487,1.4469,1.4467,1.4465,1.4462,1.4482,0,0,0,0,0,1.4273,1.4286,1.4315,1.4322,1.4331,1.4355,1.4364,1.4378,1.4396,1.4404,1.4421,1.4438,1.4452,1.446,1.4474,1.4482,1.4488,1.4484,1.4482,1.448,1.448,1.4485,1.4483,1.45,1.45,1.45,0,0,1.4263,1.4283,1.429,1.4317,1.4332,1.4345,1.4361,1.4373,1.4382,1.4405,1.4418,1.4432,1.4452,1.4462,1.4467,1.4472,1.4476,1.4479,1.4478,1.4478,1.4484,1.4482,1.4481,1.45,1.45,1.45,0,0,1.4252,1.4269,1.4277,1.4292,1.4315,1.4332,1.4334,1.436,1.437,1.4384,1.4402,1.4412,1.4435,1.4449,1.4459,1.4453,1.4465,1.4457,1.4446,1.4451,1.445,1.4448,1.4446,1.4445,1.4457,1.4457,1.4457,0,1.4237,1.4257,1.4279,1.4291,1.4302,1.4325,1.4333,1.4346,1.4372,1.4379,1.4385,1.4414,1.4429,1.4443,1.4442,1.4449,1.4451,1.4454,1.4448,1.4447,1.4447,1.4445,1.4444,1.4456,1.4456,1.4456,1.4456,0,1.4237,1.4251,1.4254,1.428,1.4292,1.4301,1.4325,1.4334,1.4347,1.4362,1.4375,1.4394,1.4413,1.4417,1.4429,1.4432,1.4435,1.4444,1.4454,1.4443,1.4442,1.4441,1.4454,1.4454,1.4455,1.4455,0,0,1.4209,1.4248,1.4249,1.4261,1.4288,1.4299,1.4309,1.4328,1.4335,1.4352,1.4361,1.438,1.4389,1.4401,1.4415,1.4419,1.4413,1.4428,1.4428,1.4424,1.4417,1.4409,1.4408,1.4421,1.4421,1.4421,1.4415,0,1.4202,1.4223,1.4243,1.4257,1.4269,1.4291,1.43,1.4317,1.4332,1.4344,1.436,1.4373,1.4384,1.4391,1.4396,1.4412,1.4411,1.4413,1.4428,1.4429,1.4422,1.4407,1.4399,1.4392,1.4414,1.4414,1.4414,0,1.4196,1.4213,1.4228,1.4254,1.426,1.4268,1.4287,1.4299,1.4319,1.4329,1.4342,1.4357,1.4368,1.4377,1.4392,1.4393,1.44,1.4409,1.441,1.4411,1.442,1.4408,1.4391,1.439,1.4413,1.4414,1.4414,0,1.4174,1.4201,1.4213,1.4223,1.4254,1.4259,1.4272,1.4292,1.4302,1.4318,1.4325,1.4342,1.4351,1.4363,1.4383,1.4387,1.4396,1.4406,1.4404,1.4403,1.4404,1.4404,1.4387,1.441,1.441,1.441,1.441,0,1.4163,1.4171,1.4204,1.4211,1.4221,1.4244,1.4252,1.4267,1.4285,1.4295,1.4314,1.4323,1.4348,1.436,1.4375,1.4385,1.4389,1.4397,1.4401,1.4395,1.4394,1.44,1.44,1.4409,1.4409,1.441,1.441,0,1.414,1.4162,1.4177,1.4205,1.4213,1.4218,1.4242,1.425,1.4266,1.4279,1.4283,1.4308,1.4322,1.4343,1.4363,1.4373,1.4381,1.4387,1.4375,1.4377,1.4373,1.4373,1.436,1.4359,1.4382,1.4382,1.4382,0,1.4131,1.4138,1.4168,1.4177,1.4189,1.4203,1.4214,1.4237,1.4247,1.427,1.4275,1.4291,1.4305,1.4328,1.4347,1.4363,1.4369,1.4363,1.4371,1.4366,1.4368,1.4368,1.4368,1.4361,1.4361,1.4361,1.436,0,1.4114,1.4125,1.414,1.4159,1.4171,1.4187,1.4204,1.4209,1.4236,1.4246,1.4262,1.4273,1.4295,1.4311,1.4329,1.4341,1.4355,1.4358,1.4358,1.4352,1.4344,1.4348,1.4369,1.4358,1.4358,1.4358,1.4358,1.4358,1.4097,1.4105,1.4127,1.4143,1.4158,1.4173,1.4182,1.4199,1.4213,1.4233,1.4246,1.4261,1.428,1.4307,1.4319,1.433,1.4336,1.4336,1.4336,1.4336,1.4334,1.4343,1.4334,1.4334,1.4334,1.4334,1.4334,0,1.4081,1.4096,1.4111,1.4134,1.4147,1.416,1.4179,1.4188,1.4201,1.4219,1.4233,1.4251,1.4266,1.4287,1.4304,1.4309,1.4315,1.4312,1.4312,1.4314,1.4328,1.4326,1.4307,1.4307,1.4307,1.4307,1.4307,1.4307,1.4073,1.4086,1.4099,1.412,1.4135,1.4151,1.416,1.4174,1.4188,1.4208,1.4221,1.4235,1.4253,1.4272,1.4286,1.4292,1.4297,1.4292,1.4299,1.4311,1.4314,1.4316,1.4314,1.4293,1.4293,1.4285,1.4285,1.4284]}]]